| time (UTC) | temp F | wind direction | speed MPH | gust MPH | rain 1hr in | rain 24hr in | rain mn in | humidity % | barometer mb |
| 20260906150021 | 71 | 32 | 2.0 | 8.0 | 0.00 | 0.10 | 0.00 | 75 | 1015.7 |
| 20260906144517 | 71 | 28 | 1.0 | 11.0 | 0.00 | 0.10 | 0.00 | 77 | 1015.7 |
| 20260906143014 | 71 | 108 | 2.0 | 6.0 | 0.00 | 0.10 | 0.00 | 78 | 1015.7 |
| 20260906141510 | 70 | 108 | 0.0 | 9.0 | 0.00 | 0.10 | 0.00 | 84 | 1015.6 |
| 20260906140011 | 69 | 84 | 7.0 | 12.0 | 0.00 | 0.10 | 0.00 | 83 | 1015.4 |
| 20260906134511 | 69 | 92 | 1.0 | 7.0 | 0.00 | 0.10 | 0.00 | 84 | 1015.5 |
| 20260906133007 | 69 | 42 | 2.0 | 8.0 | 0.00 | 0.10 | 0.00 | 84 | 1015.4 |
| 20260906131506 | 68 | 113 | 2.0 | 6.0 | 0.00 | 0.10 | 0.00 | 86 | 1015.2 |
| 20260906130000 | 68 | 66 | 1.0 | 5.0 | 0.00 | 0.10 | 0.00 | 86 | 1015.1 |
| 20260906124604 | 68 | 115 | 1.0 | 6.0 | 0.00 | 0.10 | 0.00 | 86 | 1015.1 |
| 20260906123056 | 66 | 96 | 0.0 | 3.0 | 0.00 | 0.10 | 0.00 | 89 | 1015.0 |
| 20260906121551 | 64 | 76 | 0.0 | 3.0 | 0.00 | 0.10 | 0.00 | 92 | 1014.8 |
| 20260906120046 | 62 | 78 | 0.0 | 0.0 | 0.00 | 0.10 | 0.00 | 97 | 1014.8 |
| 20260906114544 | 59 | 78 | 0.0 | 0.0 | 0.00 | 0.10 | 0.00 | 97 | 1014.6 |
| 20260906113046 | 58 | 78 | 0.0 | 0.0 | 0.00 | 0.10 | 0.00 | 97 | 1014.4 |
| 20260906111540 | 58 | 78 | 0.0 | 0.0 | 0.00 | 0.10 | 0.00 | 97 | 1014.2 |
| 20260906110039 | 57 | 78 | 0.0 | 0.0 | 0.00 | 0.10 | 0.00 | 96 | 1014.0 |
| 20260906104538 | 57 | 78 | 0.0 | 0.0 | 0.00 | 0.10 | 0.00 | 96 | 1014.1 |
| 20260906103038 | 57 | 78 | 0.0 | 0.0 | 0.00 | 0.10 | 0.00 | 96 | 1014.1 |
| 20260906101538 | 57 | 78 | 0.0 | 0.0 | 0.00 | 0.10 | 0.00 | 95 | 1014.0 |
| 20260906100035 | 57 | 78 | 0.0 | 0.0 | 0.00 | 0.10 | 0.00 | 95 | 1013.9 |
| 20260906094536 | 57 | 78 | 0.0 | 0.0 | 0.00 | 0.10 | 0.00 | 95 | 1013.9 |
| 20260906093032 | 57 | 78 | 0.0 | 0.0 | 0.00 | 0.10 | 0.00 | 94 | 1013.7 |
| 20260906091533 | 58 | 78 | 0.0 | 0.0 | 0.00 | 0.10 | 0.00 | 94 | 1013.8 |
| 20260906090030 | 58 | 78 | 0.0 | 0.0 | 0.00 | 0.10 | 0.00 | 93 | 1013.9 |
| 20260906084529 | 58 | 78 | 0.0 | 1.0 | 0.00 | 0.10 | 0.00 | 93 | 1013.7 |
| 20260906083027 | 58 | 78 | 0.0 | 0.0 | 0.00 | 0.10 | 0.00 | 92 | 1013.6 |
| 20260906081533 | 59 | 78 | 0.0 | 0.0 | 0.00 | 0.10 | 0.00 | 90 | 1013.5 |
| 20260906080020 | 60 | 78 | 0.0 | 0.0 | 0.00 | 0.10 | 0.00 | 90 | 1013.3 |
| 20260906074520 | 60 | 78 | 0.0 | 0.0 | 0.00 | 0.10 | 0.00 | 90 | 1013.1 |
| 20260906073019 | 60 | 78 | 0.0 | 0.0 | 0.00 | 0.10 | 0.00 | 89 | 1013.1 |
| 20260906071519 | 60 | 78 | 0.0 | 0.0 | 0.00 | 0.10 | 0.00 | 89 | 1013.0 |
| 20260906070018 | 60 | 78 | 0.0 | 1.0 | 0.00 | 0.10 | 0.00 | 90 | 1012.9 |
| 20260906064516 | 60 | 78 | 0.0 | 0.0 | 0.00 | 0.10 | 0.00 | 91 | 1013.1 |
| 20260906063016 | 60 | 78 | 0.0 | 0.0 | 0.00 | 0.10 | 0.00 | 90 | 1013.0 |
| 20260906061514 | 60 | 78 | 0.0 | 0.0 | 0.00 | 0.10 | 0.00 | 90 | 1013.0 |
| 20260906060014 | 60 | 78 | 0.0 | 0.0 | 0.00 | 0.10 | 0.00 | 90 | 1013.0 |
| 20260906054515 | 60 | 78 | 0.0 | 0.0 | 0.00 | 0.10 | 0.00 | 90 | 1013.0 |
| 20260906053012 | 61 | 78 | 0.0 | 0.0 | 0.00 | 0.10 | 0.00 | 89 | 1012.9 |
| 20260906051511 | 61 | 78 | 0.0 | 0.0 | 0.00 | 0.10 | 0.00 | 89 | 1012.9 |
| 20260906050028 | 61 | 78 | 0.0 | 0.0 | 0.00 | 0.10 | 0.00 | 89 | 1013.0 |
| 20260906044509 | 61 | 78 | 0.0 | 0.0 | 0.00 | 0.10 | 0.00 | 89 | 1012.9 |
| 20260906043010 | 61 | 78 | 0.0 | 0.0 | 0.00 | 0.10 | 0.00 | 89 | 1012.8 |
| 20260906041507 | 61 | 78 | 0.0 | 0.0 | 0.00 | 0.10 | 0.00 | 90 | 1012.9 |
| 20260906040005 | 61 | 78 | 0.0 | 0.0 | 0.00 | 0.10 | 0.10 | 89 | 1013.0 |
| 20260906034503 | 61 | 78 | 0.0 | 0.0 | 0.00 | 0.10 | 0.10 | 89 | 1013.0 |
| 20260906033002 | 61 | 78 | 0.0 | 0.0 | 0.00 | 0.10 | 0.10 | 88 | 1013.0 |
| 20260906031559 | 62 | 78 | 0.0 | 0.0 | 0.00 | 0.10 | 0.10 | 86 | 1013.0 |
| 20260906030123 | 62 | 78 | 0.0 | 0.0 | 0.00 | 0.10 | 0.10 | 86 | 1012.9 |
| 20260906024557 | 62 | 78 | 0.0 | 0.0 | 0.00 | 0.10 | 0.10 | 86 | 1012.8 |
| 20260906023103 | 62 | 78 | 0.0 | 0.0 | 0.00 | 0.10 | 0.10 | 85 | 1012.6 |
| 20260906021609 | 62 | 78 | 0.0 | 0.0 | 0.00 | 0.10 | 0.10 | 86 | 1012.5 |
| 20260906020058 | 62 | 78 | 0.0 | 0.0 | 0.00 | 0.10 | 0.10 | 87 | 1012.4 |
| 20260906014551 | 62 | 78 | 0.0 | 0.0 | 0.00 | 0.10 | 0.10 | 86 | 1012.4 |
| 20260906013049 | 63 | 78 | 0.0 | 0.0 | 0.00 | 0.10 | 0.10 | 85 | 1012.3 |
| 20260906011545 | 65 | 78 | 0.0 | 0.0 | 0.00 | 0.10 | 0.10 | 84 | 1012.4 |
| 20260906010042 | 66 | 78 | 0.0 | 0.0 | 0.00 | 0.10 | 0.10 | 82 | 1012.2 |
| 20260906004542 | 66 | 78 | 0.0 | 0.0 | 0.00 | 0.10 | 0.10 | 77 | 1012.0 |
| 20260906003038 | 67 | 78 | 0.0 | 0.0 | 0.00 | 0.10 | 0.10 | 77 | 1012.1 |
| 20260906001536 | 68 | 77 | 0.0 | 0.0 | 0.00 | 0.10 | 0.10 | 76 | 1012.0 |
| 20260906000036 | 68 | 77 | 0.0 | 0.0 | 0.00 | 0.10 | 0.10 | 77 | 1011.9 |
| 20260905234535 | 69 | 77 | 0.0 | 2.0 | 0.00 | 0.10 | 0.10 | 76 | 1011.5 |
| 20260905233035 | 70 | 24 | 0.0 | 5.0 | 0.00 | 0.10 | 0.10 | 76 | 1011.6 |
| 20260905231534 | 71 | 38 | 0.0 | 5.0 | 0.00 | 0.10 | 0.10 | 76 | 1011.4 |
| 20260905230034 | 72 | 44 | 2.0 | 6.0 | 0.00 | 0.10 | 0.10 | 75 | 1011.2 |
| 20260905224533 | 73 | 40 | 2.0 | 6.0 | 0.00 | 0.10 | 0.10 | 76 | 1011.0 |
| 20260905223034 | 73 | 40 | 2.0 | 9.0 | 0.00 | 0.10 | 0.10 | 78 | 1011.0 |
| 20260905221530 | 73 | 105 | 0.0 | 8.0 | 0.00 | 0.10 | 0.10 | 78 | 1010.9 |
| 20260905220030 | 74 | 47 | 3.0 | 7.0 | 0.00 | 0.10 | 0.10 | 77 | 1010.8 |
| 20260905214529 | 74 | 321 | 0.0 | 4.0 | 0.00 | 0.10 | 0.10 | 80 | 1010.6 |
| 20260905213027 | 74 | 350 | 0.0 | 4.0 | 0.00 | 0.10 | 0.10 | 80 | 1010.5 |
| 20260905211527 | 74 | 40 | 1.0 | 4.0 | 0.00 | 0.10 | 0.10 | 82 | 1010.5 |
| 20260905210031 | 74 | 245 | 1.0 | 8.0 | 0.00 | 0.10 | 0.10 | 82 | 1010.5 |
| 20260905204524 | 74 | 46 | 3.0 | 11.0 | 0.00 | 0.10 | 0.10 | 81 | 1010.5 |
| 20260905203024 | 75 | 33 | 3.0 | 7.0 | 0.00 | 0.10 | 0.10 | 82 | 1010.7 |
| 20260905201531 | 75 | 334 | 0.0 | 4.0 | 0.00 | 0.10 | 0.10 | 84 | 1010.8 |
| 20260905200030 | 76 | 57 | 1.0 | 5.0 | 0.00 | 0.10 | 0.10 | 83 | 1010.7 |
| 20260905194521 | 76 | 51 | 1.0 | 5.0 | 0.00 | 0.10 | 0.10 | 84 | 1010.7 |
| 20260905193027 | 75 | 30 | 3.0 | 6.0 | 0.00 | 0.10 | 0.10 | 87 | 1010.7 |
| 20260905191517 | 75 | 94 | 2.0 | 6.0 | 0.00 | 0.10 | 0.10 | 88 | 1010.7 |
| 20260905190015 | 74 | 55 | 0.0 | 3.0 | 0.00 | 0.10 | 0.10 | 90 | 1010.8 |
| 20260905184520 | 74 | 108 | 0.0 | 4.0 | 0.00 | 0.10 | 0.10 | 90 | 1010.9 |
| 20260905183113 | 74 | 94 | 0.0 | 7.0 | 0.00 | 0.10 | 0.10 | 90 | 1011.0 |
| 20260905181513 | 74 | 31 | 0.0 | 4.0 | 0.00 | 0.10 | 0.10 | 91 | 1011.1 |
| 20260905180008 | 74 | 36 | 0.0 | 4.0 | 0.00 | 0.11 | 0.10 | 93 | 1011.2 |
| 20260905174518 | 73 | 107 | 1.0 | 4.0 | 0.00 | 0.11 | 0.10 | 93 | 1011.3 |
| 20260905173007 | 73 | 111 | 1.0 | 3.0 | 0.00 | 0.11 | 0.10 | 94 | 1011.2 |
| 20260905171507 | 73 | 97 | 0.0 | 4.0 | 0.01 | 0.11 | 0.10 | 95 | 1011.5 |
| 20260905170005 | 73 | 51 | 0.0 | 3.0 | 0.02 | 0.11 | 0.10 | 96 | 1011.4 |
| 20260905164504 | 72 | 39 | 1.0 | 6.0 | 0.10 | 0.11 | 0.10 | 96 | 1011.5 |
| 20260905163007 | 72 | 95 | 3.0 | 6.0 | 0.10 | 0.11 | 0.10 | 95 | 1011.7 |
| 20260905161502 | 72 | 73 | 0.0 | 3.0 | 0.09 | 0.10 | 0.09 | 95 | 1011.7 |
| 20260905160002 | 72 | 69 | 0.0 | 3.0 | 0.07 | 0.08 | 0.07 | 93 | 1011.8 |
| 20260905154558 | 73 | 118 | 0.0 | 3.0 | 0.00 | 0.01 | 0.00 | 91 | 1011.8 |
| 20260905153054 | 73 | 132 | 0.0 | 6.0 | 0.00 | 0.01 | 0.00 | 91 | 1011.5 |
| 20260905151550 | 73 | 108 | 0.0 | 7.0 | 0.00 | 0.01 | 0.00 | 91 | 1011.5 |